{"data":{"norad_id":65096,"epoch":"2026-05-24T21:44:01.095072Z","epoch_age_seconds":76970,"freshness":"FRESH","line1":"1 65096U 25167U   26144.90556823  .00021039  00000+0  49127-3 0  9992","line2":"2 65096  53.1593  30.1665 0001075  79.3256 280.7870 15.42179791 45186","mean_motion":15.42179791,"eccentricity":0.0001075,"inclination_deg":53.1593,"raan_deg":30.1665,"arg_perigee_deg":79.3256,"mean_anomaly_deg":280.787,"bstar":0.00049127,"rev_number":4518,"period_min":93.374326936696,"perigee_km":438.94440874987,"apogee_km":440.41023882948,"semimajor_km":6817.8143237897,"source":"CELESTRAK","updated_at":"2026-05-25T13:38:20.686140Z"}}